[[{"header":{"parameterUnit":"m.s-1","parameterCategory":1,"la1":30.2991,"la2":30.254,"lo1":-89.0895,"lo2":-89.0444,"dy":0.0017,"dx":0.0017,"nx":28,"ny":28,"refTime":"2023-07-31T09:00:00:Z","depth":0,"parameterNumber":2,"parameterNumberName":"U-component_of_WINDS"},"data":[0,0,0,0,0,0,0,0,0,0,0,0,0,0,0,0,0,0,0,0,0,0,0,0,0,0,0,0,0,0,0,0,0,0,0,0,0,0,0,0,0,0,0,0,0,0,0,0,0,0,0,0,0,0,0,0,0,0,1.9475,1.9475,0,1.949,1.949,1.949,1.9405,1.9402,1.94,1.9397,1.9413,1.9416,1.9419,0,0,0,0,0,0,0,0,0,0,0,0,0,1.9373,1.9375,1.9475,1.9475,1.9476,1.949,1.949,1.949,1.9405,1.9402,1.9399,1.9396,1.9412,1.9416,1.9419,0,0,0,0,0,0,0,0,0,0,0,0,0,1.9406,1.9376,1.9475,1.9435,1.9431,1.949,1.949,1.949,1.9406,1.9402,1.9398,1.9395,1.9411,1.9415,1.9419,1.9517,0,0,1.9432,1.9433,0,0,0,0,0,0,0,0,1.9404,1.9409,1.9441,1.9438,1.9434,1.9441,1.9459,1.9499,1.9407,1.9416,1.9397,1.9393,1.9426,1.9428,1.9439,1.9518,1.9519,1.9432,1.9434,1.9436,1.9437,0,0,0,0,0,0,0,1.9402,1.9408,1.9481,1.9441,1.9437,1.9416,1.9416,1.9467,1.9441,1.9414,1.9408,1.9411,1.9423,1.9435,1.9439,1.9519,1.9432,1.9435,1.9438,1.9439,1.9676,1.968,0,0,0,0,0,0,1.9405,1.9407,1.948,1.9481,1.941,1.9421,1.9421,1.9443,1.944,1.9436,1.9414,1.9407,1.943,1.9434,1.9439,1.9552,1.9436,1.944,1.9442,1.9672,1.9677,1.9681,0,0,0,0,0,0,1.9403,1.9412,1.948,1.9442,1.9449,1.9426,1.9451,1.9445,1.9457,1.944,1.9435,1.9431,1.9428,1.9433,1.9498,1.9551,1.9442,1.9445,1.9668,1.9674,1.9679,1.978,0,0,0,0,0,0,1.94,1.9412,1.945,1.9444,1.9452,1.9539,1.9454,1.9448,1.9464,1.9455,1.9455,1.9451,1.9425,1.9492,1.9502,1.9555,1.9448,1.9663,1.967,1.9677,1.9772,1.9788,1.9803,0,0,0,0,0,1.9397,1.9478,1.9452,1.9461,1.9498,1.9542,1.9547,1.9515,1.9469,1.9506,1.9494,1.9451,1.9544,1.95,1.951,1.9565,1.9659,1.9668,1.9677,1.9765,1.9785,1.9802,0,0,0,0,0,0,1.9492,1.9477,1.9448,1.9529,1.9537,1.9528,1.9574,1.9538,1.956,1.955,1.951,1.951,1.9581,1.9579,1.953,1.9658,1.9594,1.9605,1.9657,1.9676,1.9692,1.9691,1.9452,0,0,0,0,0,1.9522,1.9559,1.9544,1.9617,1.9623,1.9598,1.9616,1.959,1.9597,1.9601,1.9594,1.9603,1.9633,1.9655,1.9682,1.9771,1.9769,1.9814,1.9829,1.9842,1.9852,1.9897,1.9916,1.971,1.971,1.971,0,0,1.9585,1.9581,1.9608,1.9636,1.964,1.9678,1.9601,1.9646,1.9674,1.9608,1.9667,1.9663,1.967,1.9746,1.978,1.9747,1.9908,1.9853,1.9863,1.9867,1.9908,1.9927,1.9945,1.9716,1.9715,1.9714,0,0,1.972,1.9721,1.9781,1.9786,1.9792,1.9774,1.9788,1.9784,1.9778,1.9837,1.9787,1.982,1.9874,1.988,1.9891,2.0025,1.9986,2.0035,2.0117,2.0161,2.0177,2.0191,2.0238,2.0256,2.0046,2.0046,2.0046,0,1.9798,1.9854,1.9817,1.9865,1.9878,1.9818,1.9878,1.9884,1.9899,1.991,1.9873,1.9938,1.9939,2.0015,2.0047,2.0058,2.0073,2.0035,2.0178,2.0192,2.0204,2.0249,2.0267,2.0052,2.0051,2.005,2.005,0,1.9949,1.9989,2.0037,2.0051,2.007,2.0124,2.0094,2.0118,2.009,2.0076,2.0136,2.0134,2.0159,2.0176,2.015,2.0248,2.0227,2.0185,2.0119,2.0231,2.0271,2.0288,2.006,2.0058,2.0056,2.0055,0,0,2.0146,2.0136,2.0155,2.0159,2.016,2.019,2.024,2.0264,2.0284,2.0296,2.0337,2.0383,2.0343,2.0355,2.0329,2.0368,2.0472,2.032,2.0319,2.0348,2.0579,2.0611,2.0631,2.0446,2.0449,2.0452,2.0578,0,2.0276,2.0361,2.0328,2.0416,2.0451,2.0393,2.0437,2.0442,2.043,2.0458,2.0444,2.0477,2.0422,2.0429,2.0465,2.0452,2.0518,2.0443,2.0483,2.0485,2.0483,2.0652,2.0687,2.0806,2.0594,2.0597,2.0599,0,2.0441,2.0457,2.0548,2.054,2.0554,2.0594,2.0611,2.0639,2.0643,2.0631,2.0643,2.0608,2.0656,2.059,2.0655,2.0605,2.0619,2.0615,2.0619,2.0622,2.0549,2.0659,2.0844,2.0861,2.0624,2.0622,2.062,0,2.0573,2.0619,2.0678,2.0684,2.0677,2.0706,2.0704,2.0704,2.072,2.0736,2.0745,2.0767,2.0779,2.0796,2.0767,2.0722,2.0836,2.0768,2.0827,2.0828,2.0854,2.0853,2.1043,2.0864,2.0864,2.0864,2.0863,0,2.0723,2.0781,2.0737,2.0774,2.0836,2.0797,2.086,2.0852,2.0852,2.0886,2.0837,2.087,2.083,2.0859,2.0837,2.0893,2.0899,2.0891,2.0884,2.0895,2.0896,2.0904,2.0895,2.0868,2.0867,2.0866,2.0865,0,2.0882,2.0856,2.0917,2.0904,2.0902,2.0948,2.0937,2.097,2.0953,2.0997,2.1005,2.0979,2.101,2.0983,2.1013,2.0998,2.1073,2.1055,2.1072,2.1067,2.1127,2.1121,2.1329,2.1353,2.1159,2.1161,2.1163,0,2.098,2.1022,2.1013,2.1031,2.1032,2.1063,2.1078,2.1041,2.1059,2.1064,2.1097,2.1123,2.1143,2.1195,2.1179,2.1202,2.1183,2.1254,2.1186,2.1195,2.1183,2.1181,2.1185,2.1268,2.1271,2.1272,2.1274,0,2.1154,2.1138,2.1161,2.118,2.1199,2.1212,2.1221,2.1239,2.12,2.1222,2.1253,2.1267,2.1297,2.1324,2.1341,2.1339,2.13,2.1295,2.131,2.1322,2.1329,2.1325,2.1109,2.1291,2.1289,2.1288,2.1287,2.1286,2.1285,2.1319,2.1317,2.1344,2.1347,2.1356,2.1385,2.1372,2.1396,2.1417,2.1393,2.143,2.1431,2.1449,2.1452,2.148,2.145,2.1472,2.1477,2.1483,2.1492,2.1325,2.1483,2.1482,2.1482,2.1482,2.1481,0,2.1456,2.1452,2.1477,2.149,2.1511,2.1471,2.1478,2.1498,2.1531,2.1534,2.1554,2.1588,2.1613,2.1599,2.162,2.1645,2.1628,2.1652,2.165,2.165,2.1517,2.1502,2.1666,2.1666,2.1666,2.1666,2.1666,2.1666,2.1548,2.1604,2.1587,2.1643,2.1637,2.1672,2.168,2.1687,2.1689,2.173,2.175,2.1739,2.1735,2.1756,2.1777,2.1772,2.1782,2.1812,2.1801,2.1678,2.1659,2.1642,2.1627,2.1815,2.1815,2.1931,2.1932,2.1933]},{"header":{"parameterUnit":"m.s-1","parameterCategory":1,"la1":30.2991,"la2":30.254,"lo1":-89.0895,"lo2":-89.0444,"dy":0.0017,"dx":0.0017,"nx":28,"ny":28,"refTime":"2023-07-31T09:00:00:Z","depth":0,"parameterNumber":3,"parameterNumberName":"V-component_of_WINDS"},"data":[0,0,0,0,0,0,0,0,0,0,0,0,0,0,0,0,0,0,0,0,0,0,0,0,0,0,0,0,0,0,0,0,0,0,0,0,0,0,0,0,0,0,0,0,0,0,0,0,0,0,0,0,0,0,0,0,0,0,0.0775,0.0776,0,0.0789,0.079,0.079,0.079,0.079,0.079,0.079,0.0804,0.0804,0.0805,0,0,0,0,0,0,0,0,0,0,0,0,0,0.0748,0.0749,0.0775,0.0776,0.0776,0.0789,0.079,0.079,0.079,0.079,0.079,0.079,0.0804,0.0804,0.0805,0,0,0,0,0,0,0,0,0,0,0,0,0,0.0761,0.0749,0.0775,0.0778,0.0778,0.0789,0.079,0.079,0.079,0.079,0.079,0.0789,0.0803,0.0804,0.0805,0.0815,0,0,0.0807,0.0808,0,0,0,0,0,0,0,0,0.076,0.0762,0.0777,0.0777,0.0778,0.0788,0.0785,0.0798,0.079,0.0786,0.079,0.0789,0.0799,0.08,0.0803,0.0816,0.0816,0.0807,0.0808,0.0808,0.0809,0,0,0,0,0,0,0,0.0759,0.0761,0.0781,0.0777,0.0778,0.0778,0.0779,0.0788,0.0793,0.0786,0.0786,0.0788,0.0799,0.0802,0.0803,0.0817,0.0807,0.0808,0.0809,0.0809,0.0837,0.0837,0,0,0,0,0,0,0.0758,0.0761,0.0781,0.0781,0.0768,0.0778,0.078,0.0785,0.0793,0.0794,0.0788,0.0788,0.0801,0.0802,0.0804,0.0815,0.0808,0.0809,0.081,0.0837,0.0837,0.0837,0,0,0,0,0,0,0.0758,0.076,0.078,0.0771,0.0774,0.0779,0.0784,0.0785,0.0789,0.0795,0.0796,0.079,0.0801,0.0803,0.0812,0.0816,0.0809,0.081,0.0836,0.0837,0.0837,0.0839,0,0,0,0,0,0,0.0757,0.076,0.0764,0.0771,0.0774,0.0788,0.0785,0.0786,0.079,0.079,0.0797,0.0798,0.0801,0.0811,0.0813,0.0817,0.0811,0.0836,0.0837,0.0837,0.0839,0.084,0.084,0,0,0,0,0,0.0756,0.0764,0.0764,0.0767,0.0779,0.0788,0.079,0.0793,0.079,0.0794,0.0798,0.0798,0.0815,0.0812,0.0814,0.0818,0.0836,0.0836,0.0837,0.0838,0.0839,0.084,0,0,0,0,0,0,0.0758,0.0765,0.0765,0.0776,0.0782,0.0789,0.0794,0.0794,0.08,0.08,0.0803,0.0804,0.0813,0.0817,0.0813,0.0828,0.0825,0.0826,0.0825,0.0826,0.0827,0.0826,0.0811,0,0,0,0,0,0.0759,0.0766,0.0772,0.0781,0.0784,0.0788,0.0792,0.0794,0.08,0.0802,0.0806,0.0812,0.0818,0.0823,0.0829,0.0839,0.084,0.0843,0.0844,0.0845,0.0845,0.085,0.0851,0.0839,0.0839,0.0839,0,0,0.0763,0.0768,0.0772,0.0782,0.0786,0.0793,0.079,0.0798,0.0803,0.0803,0.0812,0.0815,0.0821,0.0831,0.0835,0.0834,0.0849,0.0845,0.0846,0.0846,0.0851,0.0852,0.0853,0.084,0.0839,0.0839,0,0,0.0773,0.0777,0.0785,0.0789,0.0796,0.0798,0.08,0.0807,0.0809,0.0818,0.0818,0.0823,0.0835,0.0839,0.0842,0.0852,0.0852,0.0854,0.0858,0.0863,0.0864,0.0864,0.0867,0.0868,0.0855,0.0855,0.0855,0,0.0776,0.0787,0.0789,0.0796,0.08,0.08,0.0808,0.0812,0.082,0.0822,0.0821,0.0834,0.0839,0.0848,0.0851,0.0854,0.0855,0.0853,0.0863,0.0864,0.0865,0.0868,0.0869,0.0855,0.0855,0.0855,0.0855,0,0.079,0.0797,0.0802,0.081,0.0814,0.0822,0.0825,0.0829,0.083,0.0832,0.0841,0.0846,0.0852,0.0855,0.0856,0.0865,0.0864,0.0863,0.086,0.0866,0.0869,0.087,0.0855,0.0855,0.0855,0.0855,0,0,0.0802,0.081,0.0812,0.0815,0.0821,0.0827,0.0833,0.084,0.0843,0.0848,0.0854,0.0863,0.0862,0.0866,0.0867,0.0871,0.0877,0.0869,0.0869,0.087,0.0886,0.0887,0.0888,0.0877,0.0878,0.0878,0.0886,0,0.0812,0.0824,0.0826,0.0837,0.0843,0.0842,0.0848,0.0852,0.0855,0.086,0.0862,0.0869,0.0867,0.0869,0.0873,0.0876,0.0881,0.0875,0.0882,0.0882,0.088,0.089,0.0891,0.0898,0.0887,0.0887,0.0887,0,0.0826,0.0831,0.0842,0.0847,0.0849,0.0854,0.086,0.0865,0.0869,0.0871,0.0875,0.0875,0.0882,0.0878,0.0887,0.0883,0.0886,0.0888,0.0888,0.0889,0.0885,0.089,0.09,0.0901,0.0889,0.0889,0.0889,0,0.0833,0.0842,0.085,0.0852,0.0858,0.0862,0.0864,0.0869,0.0872,0.0877,0.0879,0.0884,0.0887,0.0891,0.0893,0.0891,0.0901,0.0899,0.0902,0.0902,0.0905,0.0904,0.0915,0.0907,0.0907,0.0907,0.0907,0,0.0844,0.085,0.0853,0.0858,0.0864,0.0866,0.0873,0.0875,0.0879,0.0884,0.0884,0.0888,0.0891,0.0895,0.0897,0.0903,0.0905,0.0906,0.0906,0.0905,0.0905,0.0907,0.0907,0.0907,0.0907,0.0907,0.0907,0,0.0853,0.0855,0.0863,0.0867,0.0868,0.0873,0.0877,0.0881,0.0883,0.0889,0.0891,0.0894,0.0899,0.0901,0.0908,0.0909,0.0916,0.0916,0.0914,0.0914,0.0918,0.0917,0.093,0.0931,0.0922,0.0922,0.0922,0,0.0859,0.0864,0.0869,0.0872,0.0874,0.0879,0.0883,0.0884,0.0888,0.0892,0.0896,0.0901,0.0905,0.0914,0.0916,0.0921,0.0921,0.0925,0.0922,0.0921,0.0921,0.092,0.092,0.0926,0.0926,0.0926,0.0926,0,0.0871,0.0871,0.0876,0.088,0.0884,0.0888,0.0892,0.0894,0.0896,0.09,0.0905,0.0908,0.0915,0.092,0.0924,0.0927,0.0927,0.0927,0.0928,0.0928,0.0926,0.0926,0.0915,0.0927,0.0927,0.0927,0.0927,0.0927,0.0878,0.0882,0.0886,0.0891,0.0893,0.0897,0.0901,0.0903,0.0907,0.0912,0.0913,0.0918,0.0922,0.0928,0.093,0.0934,0.0933,0.0935,0.0935,0.0936,0.0936,0.0926,0.0935,0.0935,0.0935,0.0935,0.0935,0,0.0889,0.0891,0.0896,0.09,0.0904,0.0903,0.0907,0.091,0.0915,0.0918,0.0922,0.0928,0.0932,0.0935,0.0939,0.0942,0.0942,0.0943,0.0943,0.0943,0.0937,0.0935,0.0943,0.0943,0.0943,0.0943,0.0943,0.0943,0.0895,0.0902,0.0902,0.091,0.0912,0.0917,0.0919,0.0922,0.0924,0.093,0.0934,0.0936,0.0938,0.0943,0.0947,0.0947,0.0949,0.095,0.095,0.0944,0.0944,0.0943,0.0941,0.095,0.095,0.0957,0.0957,0.0957]}]]